Regional Weather Roundup
Issued by NWS

Home | Current Version | Previous Version | Text Only | Print | Product List | Glossary On
Versions: 1 2 3 4 5 6 7 8 9 10 11 12 13 14 15 16 17 18 19 20 21 22 23 24 25 26 27 28 29 30 31 32 33 34 35 36 37 38 39 40 41 42 43 44 45 46 47 48 49 50
000
ASUS43 KLSX 300207
RWRMO

WEATHER SUMMARY FOR MISSOURI
NATIONAL WEATHER SERVICE SPRINGFIELD MO
900 PM CDT MON JUN 29 2015

NOTE: "FAIR" INDICATES FEW OR NO CLOUDS BELOW 12,000 FEET WITH NO
       SIGNIFICANT WEATHER AND/OR OBSTRUCTIONS TO VISIBILITY.
       CURRENT SKY AND/OR WEATHER CONDITIONS ARE NOT AVAILABLE FOR
       CHILLICOTHE AND FARMINGTON.

MOZ001>031-035>038-043-044-053-054-300300-
...NORTHERN AND WESTERN MISSOURI...

CITY           SKY/WX    TMP DP  RH WIND       PRES   REMARKS
KANSAS CTY INT CLOUDY    79  64  60 CALM      29.91R
KANSAS C DTWN  CLEAR     83  65  54 CALM      29.89R
LEE`S SUMMIT   CLEAR     78  64  61 CALM      29.91S
ST JOSEPH      CLEAR     77  68  73 CALM      29.89S
CHILLICOTHE      N/A     74  70  87 CALM      29.89S
KIRKSVILLE     CLEAR     72  65  78 NW5       29.88S

$$
MOZ066>068-077>081-088>096-101>105-300300-
...SOUTHWEST MISSOURI...

CITY           SKY/WX    TMP DP  RH WIND       PRES   REMARKS
SPRINGFIELD    CLEAR     78  63  59 CALM      29.93S
JOPLIN         CLEAR     75  65  70 CALM      29.93S

$$
MOZ032>034-039>042-045>050-055>058-069>072-300300-
...CENTRAL MISSOURI...

CITY           SKY/WX    TMP DP  RH WIND       PRES   REMARKS
COLUMBIA       CLEAR     77  67  71 W3        29.88S
JEFFERSON CITY CLEAR     78  68  71 CALM      29.86S
ROLLA          CLEAR     72  66  81 W6        29.89S
SEDALIA        CLEAR     77  66  68 W6        29.90S
WHITEMAN AFB   CLEAR     78  67  68 W3        29.89S
WARRENSBURG    CLEAR     77  64  65 CALM      29.90R
OSAGE BEACH    CLEAR     73  70  88 W3        29.90S

$$
MOZ051-052-059>065-300300-
...EAST CENTRAL MISSOURI...

CITY           SKY/WX    TMP DP  RH WIND       PRES   REMARKS
ST LOUIS INTL  CLOUDY    77  65  66 CALM      29.85F
SPIRIT OF STL  MOCLDY    73  71  93 SE3       29.84S
ST CHARLES     PTCLDY    76  71  85 SW3       29.83F

$$
MOZ072>076-082>087-097>100-106>115-300300-
...SOUTH CENTRAL AND SOUTHEAST MISSOURI...

CITY           SKY/WX    TMP DP  RH WIND       PRES   REMARKS
CAPE GIRARDEAU CLEAR     76  69  79 SE5       29.85R
FARMINGTON     CLEAR     75  68  78 SW5       29.92S
POPLAR BLUFF   CLEAR     78  69  73 CALM      29.85R
WEST PLAINS    CLEAR     74  65  73 NW5       29.93R

$$



USA.gov is the U.S. government's official web portal to all federal, state and local government web resources and services.